Theta_e
312 311 311 310 310 309 309 308 308 307 306 311 309 313 319 311 310 325 329 328 327 317 310 311 305 308 309 308 306 307 306 306 307 306 307 306 308 307 306 307 306 307 308 306 305 306 302 302 302 302 302 303 305 306 308 306 305 306 305 304 306 307 301 297 296 301 303 304 306 307 307 306 306 305 305 304 298 300 295 294 298 292 295 292 291 288 293
312 312 310 310 309 309 309 308 308 307 306 306 308 314 313 317 317 320 331 332 328 313 300 301 304 308 308 309 306 306 307 307 305 305 306 306 306 306 306 305 309 307 309 307 304 307 295 303 302 302 303 303 307 306 307 306 306 306 305 302 310 298 301 298 292 293 295 299 302 303 306 306 302 300 304 304 303 303 303 302 301 292 295 294 290 285 291
312 311 311 310 309 309 309 308 308 307 307 308 309 312 311 316 321 319 322 323 321 307 310 307 304 306 306 305 304 305 305 305 307 307 305 307 308 307 306 308 309 308 310 308 308 308 308 302 305 306 303 305 308 307 308 306 307 307 309 308 308 300 298 297 290 286 285 285 287 290 293 298 301 303 304 303 303 298 295 293 294 290 295 296 291 291 298
312 311 311 310 309 309 308 308 307 307 307 306 312 312 314 310 299 313 315 317 315 314 314 315 309 307 308 300 306 307 305 305 307 308 307 308 308 310 308 308 310 308 307 305 305 304 307 307 303 302 304 305 306 308 309 308 308 311 310 308 308 300 303 302 298 293 292 293 298 302 302 301 293 299 302 303 303 304 303 297 294 291 294 292 296 296 297
312 311 311 310 309 308 308 308 307 307 306 306 308 313 317 312 307 306 302 312 310 310 311 310 310 305 310 299 306 304 306 306 306 309 306 308 308 308 308 306 306 306 307 305 305 305 304 305 305 304 304 306 307 308 311 310 311 311 309 310 308 303 299 300 302 300 300 301 301 302 302 297 299 297 296 302 302 302 295 293 292 298 292 290 300 301 298
311 311 310 309 309 308 308 308 308 307 306 305 310 311 314 302 312 314 319 308 300 302 303 310 310 311 312 309 309 306 305 305 303 306 309 309 311 306 305 306 306 306 306 307 299 304 303 303 299 305 305 305 307 305 308 309 312 315 308 309 308 302 294 301 302 300 301 303 302 303 303 302 301 301 299 294 300 298 291 291 299 296 293 291 298 301 299
311 311 310 309 309 308 308 308 307 307 306 307 314 311 315 316 317 317 317 306 310 311 315 311 309 308 308 308 309 307 306 305 309 308 308 307 307 307 297 304 305 305 309 307 302 304 298 295 306 304 304 305 306 304 305 308 310 310 308 307 310 304 299 302 302 301 301 302 302 303 302 302 303 303 303 303 300 294 294 295 302 301 295 301 301 302 301
311 310 309 309 309 309 308 308 308 307 306 310 315 317 313 309 310 313 315 314 313 315 314 312 309 306 311 300 307 307 307 306 309 310 309 301 307 308 304 304 305 306 307 307 304 306 305 304 297 306 306 306 306 305 306 306 309 309 307 307 312 305 298 302 303 299 300 301 303 304 303 301 299 300 301 302 302 296 295 293 295 294 293 300 300 301 300
310 310 309 309 309 308 308 308 308 307 307 317 316 317 317 317 318 318 313 308 311 311 312 309 307 304 307 304 309 308 308 307 310 311 313 311 307 307 305 306 308 308 307 307 307 309 309 308 308 309 307 301 307 303 305 306 305 306 307 307 309 306 299 303 302 293 297 301 302 302 303 303 300 294 293 291 288 290 289 290 293 291 291 294 297 295 298
310 310 309 309 308 308 308 308 308 307 307 315 316 317 317 317 318 318 317 307 309 310 311 311 308 301 307 308 309 307 308 310 312 303 311 311 313 314 310 310 308 309 308 307 309 313 311 311 312 310 310 311 310 308 307 306 306 306 305 309 304 305 302 295 297 293 292 301 300 300 300 298 293 291 294 302 299 300 301 304 304 298 299 291 293 295 304
310 309 309 309 308 308 308 308 308 307 311 308 310 315 315 316 318 318 317 307 309 309 308 306 305 309 310 310 309 309 312 311 311 303 301 313 313 311 314 311 307 306 306 314 317 318 316 315 313 313 311 310 309 308 307 306 307 308 307 305 305 305 303 298 302 291 293 300 300 300 296 288 289 302 305 304 302 303 292 293 302 306 305 300 304 304 306
310 310 309 309 308 308 308 308 308 307 308 310 310 309 311 311 313 316 313 302 303 311 307 305 305 312 307 309 309 308 309 309 310 314 309 312 316 314 314 313 311 299 313 316 316 314 314 312 311 311 309 308 308 308 307 306 306 308 309 307 305 303 302 298 303 293 293 298 298 291 286 288 303 306 308 307 306 305 304 305 306 307 308 307 305 305 306
310 310 308 309 308 308 308 308 307 307 308 310 310 309 312 309 308 316 315 309 303 308 304 308 309 312 311 311 309 311 311 312 316 314 317 314 312 314 315 313 310 311 315 314 314 311 307 305 305 303 302 302 303 304 303 304 306 307 309 308 307 299 298 298 295 295 296 294 293 284 287 300 304 309 309 307 305 305 306 304 306 306 306 308 305 306 306
309 309 309 309 309 308 308 307 307 307 307 308 309 310 309 308 310 315 315 304 303 311 313 311 308 309 310 310 309 310 309 311 314 314 311 316 313 313 313 312 315 316 317 316 312 308 302 301 294 297 298 300 301 299 301 304 305 305 306 306 307 306 304 300 295 301 290 292 291 290 299 300 302 302 303 305 302 304 301 292 298 306 308 307 306 305 306
309 309 309 309 308 308 308 307 307 307 307 307 310 311 310 310 309 311 315 312 303 308 311 301 307 310 311 311 311 309 308 311 308 308 315 315 315 317 315 313 315 316 317 311 307 307 301 298 291 291 296 294 289 292 301 300 304 307 306 306 307 307 302 302 296 293 297 292 291 291 290 287 293 304 308 312 310 310 308 303 298 307 308 309 306 304 305
309 309 309 308 308 308 308 307 307 307 307 307 310 309 310 310 310 310 312 313 309 299 305 313 312 314 311 311 311 310 306 307 307 310 308 310 313 312 312 314 314 314 312 310 308 302 297 292 290 291 290 292 299 296 293 301 299 304 307 306 306 306 307 305 298 294 294 292 289 289 286 289 301 304 307 310 311 309 309 302 296 306 307 308 306 305 306
308 308 308 308 308 308 307 308 307 307 308 307 308 309 311 312 310 310 312 314 310 301 310 310 315 316 312 308 309 308 312 305 309 302 301 307 309 309 309 312 314 313 310 307 305 299 293 293 297 296 299 302 295 291 300 298 298 300 303 304 304 303 301 298 296 293 294 292 290 289 292 291 302 308 308 309 311 310 305 290 291 305 308 308 308 306 306
308 308 308 307 308 308 308 308 307 307 307 307 308 308 310 313 311 309 309 312 309 306 314 314 312 310 308 311 309 312 313 311 310 311 308 310 309 308 308 309 307 309 311 303 303 297 295 293 291 291 291 303 304 299 290 297 294 295 298 300 300 298 297 298 294 295 295 291 292 294 294 304 308 307 310 310 312 307 292 288 297 306 307 309 309 308 308
308 308 307 307 307 308 308 307 307 307 308 307 310 309 310 312 312 311 312 311 310 303 313 312 313 312 312 311 314 313 313 314 312 303 303 306 308 311 310 310 312 302 306 301 304 297 294 294 301 299 294 297 301 292 301 294 294 302 302 298 299 298 298 295 297 294 293 295 292 292 295 304 310 311 310 310 305 292 292 305 310 309 309 311 311 309 310
308 308 307 307 307 308 307 307 307 307 307 307 308 307 309 312 312 312 311 310 312 310 313 314 313 310 311 312 311 309 310 309 310 308 305 300 311 310 307 302 308 310 306 307 297 302 297 294 296 301 295 297 300 304 296 299 303 300 300 302 297 298 293 293 293 296 297 294 291 290 286 299 311 310 307 309 295 295 308 308 311 310 310 310 311 311 310
308 308 307 307 307 308 308 308 308 307 307 307 305 307 308 312 311 312 313 311 311 303 306 312 311 311 311 310 312 311 310 309 310 307 309 310 313 309 298 297 305 306 301 301 296 297 297 295 300 297 302 301 302 299 292 295 300 305 303 302 300 306 294 294 297 300 291 292 289 289 297 307 312 307 298 306 307 308 311 309 307 312 311 311 310 311 312
308 307 307 307 307 308 308 308 308 308 308 307 305 308 305 311 311 313 313 313 310 305 311 312 312 313 314 315 315 316 313 311 311 312 310 304 314 312 310 311 310 308 309 309 305 303 304 304 304 298 296 298 304 295 301 294 291 301 304 302 292 306 300 303 296 304 296 293 298 305 308 310 311 310 307 310 313 313 314 312 310 309 311 314 310 310 312
308 308 307 307 307 308 309 308 308 308 307 306 307 307 305 307 309 313 314 310 314 314 315 313 314 313 314 314 316 317 317 316 315 314 312 310 305 310 310 310 310 313 313 313 306 305 304 304 297 302 300 302 297 297 301 298 294 300 295 303 301 308 309 308 303 300 307 308 308 310 309 310 311 312 312 313 315 318 318 314 310 312 312 314 312 312 313
308 307 307 307 307 308 309 308 308 308 307 305 306 307 306 308 309 310 311 309 308 303 307 313 307 300 305 307 310 313 311 311 315 317 319 316 305 305 310 310 311 310 313 316 315 309 307 307 307 305 296 302 304 297 293 293 294 301 300 299 303 306 306 303 298 305 298 292 306 305 306 308 310 310 312 313 315 315 317 314 313 313 313 314 316 314 314
308 307 307 307 307 308 309 308 308 308 308 305 305 308 308 307 309 309 308 299 301 300 295 299 302 307 307 312 311 311 311 315 317 317 316 314 312 310 309 315 316 315 314 316 314 310 303 301 302 302 294 306 304 294 303 297 297 304 295 298 301 301 308 302 301 302 299 296 303 308 309 311 312 310 309 309 311 313 315 316 316 316 317 317 317 319 316
308 307 307 307 307 308 309 308 308 308 308 306 306 307 305 305 309 310 309 310 310 307 297 297 304 308 312 309 308 309 312 312 312 313 313 313 313 314 315 316 316 318 316 314 314 304 304 302 302 303 299 299 308 298 298 303 304 306 300 299 308 306 303 295 302 299 302 305 306 305 307 309 309 310 311 311 310 311 312 314 317 316 315 315 317 319 316
308 307 307 307 307 308 309 308 308 308 308 307 308 308 307 307 309 306 307 308 304 297 299 297 306 308 309 307 310 311 311 312 312 312 311 312 312 315 314 315 314 313 313 310 311 306 303 302 301 301 305 304 306 305 306 303 302 298 296 303 305 303 298 303 302 296 295 296 301 305 296 296 303 309 310 311 313 312 312 315 314 313 313 315 314 316 318
308 307 307 307 307 308 308 308 308 308 307 307 308 308 309 306 307 308 309 308 305 298 299 300 303 307 310 306 309 310 311 311 312 311 311 311 311 312 313 313 314 312 311 308 301 301 302 300 301 306 309 308 302 301 306 307 304 301 301 302 304 300 302 302 297 295 294 301 303 308 307 304 304 307 310 312 313 314 312 311 311 312 313 314 314 312 314
307 307 307 307 307 307 308 308 308 307 308 307 308 307 307 307 307 308 307 309 309 305 302 301 305 304 298 306 308 309 311 312 312 311 311 311 311 312 312 312 312 311 312 308 303 303 303 303 309 303 304 310 304 299 303 296 295 294 299 305 306 306 308 306 305 305 304 305 305 308 307 302 305 307 310 310 313 312 311 311 311 311 311 313 313 313 311
307 308 307 307 307 307 308 308 308 308 307 308 306 303 299 301 307 307 308 308 309 308 298 296 294 296 309 307 307 308 309 310 310 311 310 310 310 311 310 311 311 312 311 303 303 299 303 303 306 310 308 312 305 299 298 299 297 300 305 306 308 308 307 308 308 305 303 306 309 310 309 308 308 309 311 312 313 313 310 310 311 311 311 312 312 312 313
307 307 307 307 307 307 308 307 308 308 307 306 303 295 294 292 301 306 305 309 311 307 299 298 295 301 302 309 308 307 307 307 309 309 310 310 311 310 311 313 313 310 303 304 302 302 302 300 301 306 308 307 303 298 299 298 295 298 303 305 308 307 306 306 308 308 307 306 310 311 309 307 309 309 308 310 312 313 312 311 312 312 313 314 313 313 312
307 307 307 307 307 307 307 307 307 307 307 303 300 298 299 300 304 307 308 309 310 305 298 294 294 295 296 302 307 308 305 306 308 309 310 311 309 311 311 309 308 309 304 303 303 301 299 299 303 305 305 306 301 300 301 298 294 296 303 305 306 305 306 306 306 307 310 311 309 307 305 306 307 306 305 309 311 312 312 312 311 312 314 313 312 314 314
306 307 307 307 307 307 307 307 307 307 305 306 307 306 306 306 306 307 307 309 308 303 305 296 291 294 293 300 306 305 305 306 306 307 306 311 309 310 308 310 311 309 310 303 299 298 304 298 303 301 305 309 299 296 298 296 298 302 303 303 304 306 305 306 306 307 308 309 308 303 302 304 306 310 310 309 311 312 311 310 310 312 312 310 311 312 313
306 307 307 307 307 307 307 306 307 306 306 304 301 303 307 307 307 306 308 306 305 305 299 296 292 291 293 305 300 305 306 303 303 305 299 308 311 308 304 307 309 300 305 301 302 301 302 303 298 300 306 301 304 296 292 298 301 301 302 303 305 305 305 306 306 304 305 306 309 308 307 306 308 313 312 310 310 311 311 311 310 309 309 309 309 310 312
306 307 307 307 307 307 307 306 305 303 300 301 301 306 308 306 307 307 306 304 297 294 295 295 297 294 293 294 295 300 305 304 302 304 299 304 310 306 307 300 303 297 300 308 301 300 299 298 304 297 295 302 296 292 295 298 299 301 302 303 304 304 304 304 305 305 305 305 307 307 307 307 306 307 307 307 308 309 309 311 310 309 307 308 309 311 314
306 306 307 307 307 307 306 305 305 301 298 298 300 306 305 307 307 308 308 308 303 296 294 293 296 293 295 291 291 298 303 301 306 306 305 307 304 307 306 302 296 300 309 303 297 302 298 305 300 294 299 294 293 295 298 301 300 301 302 302 304 304 304 304 306 306 305 306 305 307 306 306 304 305 306 307 308 308 309 309 310 310 309 309 310 312 314
306 306 307 306 306 303 299 299 304 302 300 305 306 306 307 308 308 307 304 303 305 305 297 296 292 294 296 295 299 301 302 293 303 299 304 299 298 301 302 298 295 299 299 297 297 297 302 308 299 295 295 294 296 302 302 302 302 302 302 304 305 306 306 306 307 306 305 304 304 306 305 305 305 306 306 307 307 308 308 309 309 309 309 309 311 312 314
306 306 306 302 300 292 292 296 301 305 307 305 306 303 302 304 294 295 296 293 299 302 297 299 293 298 302 297 292 302 299 296 302 295 297 300 298 296 301 298 298 298 292 295 299 306 301 299 296 295 295 302 304 304 304 304 304 305 305 305 305 306 306 307 306 305 304 303 303 304 305 305 304 305 306 307 307 307 308 310 310 311 311 311 311 313 313
305 304 302 302 297 292 293 299 308 307 305 306 306 296 293 295 293 290 290 293 294 292 298 297 293 298 297 295 297 304 299 298 293 299 294 302 295 293 298 293 298 297 294 294 298 306 295 295 296 295 294 301 301 303 305 305 306 306 306 307 307 307 307 306 307 306 305 304 304 305 305 305 305 305 307 307 308 308 309 310 310 311 312 312 312 313 313
302 297 295 296 294 296 303 306 307 305 303 294 297 294 289 294 290 287 296 289 289 293 298 290 297 298 299 295 294 295 303 297 292 293 294 299 304 295 297 296 298 294 290 291 295 303 294 291 295 294 293 299 301 305 305 305 305 306 308 308 308 308 309 308 308 308 308 308 308 307 307 307 307 306 306 307 308 307 309 310 311 313 313 313 313 313 313
300 300 298 294 298 302 303 305 306 305 296 291 291 291 289 288 292 293 291 288 289 291 300 297 299 296 298 299 297 293 302 302 300 300 299 293 304 300 295 291 299 292 290 290 297 297 295 292 292 292 294 301 302 304 304 304 305 306 307 308 308 308 309 309 309 309 308 307 307 307 307 308 307 308 308 308 308 309 309 310 311 312 313 313 314 314 314
302 301 301 305 305 305 304 303 298 293 292 293 287 285 288 289 292 291 292 287 288 292 296 297 293 294 294 297 296 298 297 303 301 295 292 290 297 295 293 295 295 290 287 295 301 296 294 289 290 291 298 302 304 303 302 302 304 304 306 307 308 310 310 309 309 309 310 308 308 308 308 309 309 308 308 308 308 309 309 310 311 314 314 314 314 314 314
305 306 306 302 300 296 296 290 293 291 285 285 285 282 287 284 287 287 288 292 299 296 297 302 300 302 301 303 298 300 297 302 295 295 293 291 298 296 293 292 291 287 292 301 296 292 290 289 289 294 302 302 303 302 304 304 305 306 307 308 309 310 311 310 310 309 310 310 310 309 309 309 310 310 310 309 309 309 310 309 311 313 313 313 313 314 314
306 304 299 294 292 291 294 281 293 288 285 287 284 280 284 283 286 290 288 291 295 295 298 295 295 296 291 299 296 295 298 299 298 297 294 296 294 291 291 288 289 297 301 293 291 288 290 292 295 298 302 303 301 303 304 305 306 305 305 306 307 308 311 311 311 309 309 310 310 310 310 310 310 310 311 311 310 310 310 310 311 311 312 313 313 314 314
295 292 291 289 287 290 287 280 292 285 280 283 287 286 287 284 288 290 289 296 296 294 299 299 299 297 295 300 300 299 297 294 299 293 289 294 290 292 290 289 294 295 291 288 290 291 291 291 298 300 300 300 301 303 304 304 305 305 305 306 306 307 307 310 310 310 309 309 310 310 310 310 309 309 310 311 311 311 310 310 312 311 312 313 313 313 314
290 289 288 284 281 287 285 282 286 281 287 289 288 290 290 292 293 293 297 300 297 299 297 299 299 299 296 300 293 294 297 297 293 292 294 294 289 287 293 297 295 289 288 289 287 286 289 295 298 300 301 301 302 303 303 304 305 305 305 304 305 305 306 308 310 310 310 310 311 311 311 310 310 310 310 311 311 311 311 312 313 313 313 313 312 312 313
290 290 290 289 284 287 289 283 285 288 291 292 293 294 293 294 296 296 299 300 299 300 300 301 300 299 295 296 294 295 297 297 291 294 296 289 288 291 295 291 286 287 284 284 286 288 293 297 300 302 303 303 303 303 304 304 304 305 305 305 306 306 307 307 309 310 310 310 310 311 311 311 311 311 311 311 311 312 312 312 314 314 313 312 312 312 313
287 291 290 283 281 286 284 287 293 294 296 295 295 296 296 297 295 295 298 300 300 300 299 299 296 298 296 299 299 292 294 295 291 292 294 291 292 289 288 287 286 288 289 287 289 294 296 299 301 302 303 304 303 303 303 303 304 305 305 306 307 307 306 306 307 309 309 309 310 310 310 311 311 311 310 311 312 312 312 313 315 315 314 313 312 313 312
290 288 286 285 288 289 289 292 292 289 292 294 296 296 295 294 294 295 298 300 299 298 301 297 294 295 291 294 293 292 289 294 287 288 292 290 287 284 285 282 284 284 290 293 294 296 298 301 302 302 303 303 303 304 304 305 305 305 305 304 305 305 305 306 307 308 309 309 309 309 309 311 312 311 311 311 311 312 314 315 315 314 313 312 312 312 311
287 288 290 289 289 290 294 295 291 289 291 292 293 293 295 295 294 296 300 298 299 298 298 297 297 293 291 292 288 290 289 292 290 291 289 286 287 288 287 284 286 287 291 296 297 299 301 302 303 302 302 302 303 304 304 305 303 305 306 306 306 306 306 306 306 307 308 309 310 310 310 311 311 310 311 311 312 313 313 314 313 313 313 313 312 312 310
289 289 290 295 290 288 292 286 286 287 289 290 292 292 294 293 295 296 301 298 298 296 294 290 292 291 289 288 287 283 286 293 290 288 288 287 291 289 286 285 289 294 296 299 300 301 301 302 302 302 302 303 303 304 304 304 304 304 305 305 305 306 306 307 308 308 309 309 311 302 310 311 311 312 313 313 313 313 312 311 311 313 312 313 312 311 310
287 285 287 292 294 294 294 293 293 292 292 294 293 294 295 293 296 298 302 299 297 292 289 292 291 288 286 284 287 291 292 290 287 288 286 289 292 288 288 291 294 296 298 298 299 301 301 303 303 303 304 303 303 305 305 305 305 305 305 305 305 306 307 308 308 308 309 309 310 311 311 312 312 313 313 313 313 311 310 310 310 312 312 312 312 311 310
Wind_Speed
5 7 9 10 12 13 16 18 17 19 22 9 7 6 3 6 2 4 2 4 3 5 2 3 2 3 3 4 4 3 3 2 4 5 4 4 2 4 2 2 3 2 1 2 2 3 1 1 0 4 3 5 5 4 1 2 3 4 3 4 3 3 3 3 3 4 5 4 3 2 2 2 5 3 2 3 2 4 3 3 5 5 3 4 2 3 1
5 6 8 10 11 12 15 16 16 16 17 8 8 4 3 2 3 2 3 0 3 4 4 4 4 4 4 2 5 1 1 2 7 5 4 2 6 3 4 4 3 2 1 3 3 2 2 2 3 4 3 4 4 3 3 3 1 4 4 4 4 3 2 5 2 3 4 5 4 5 3 6 1 4 4 3 1 2 3 5 3 4 2 3 4 5 3
5 6 8 10 10 11 13 13 14 15 14 10 4 4 3 3 1 3 1 1 2 6 2 4 6 6 8 8 8 7 4 3 4 2 3 1 1 3 3 2 4 3 2 2 2 2 3 3 1 3 3 5 4 4 2 3 1 4 4 3 1 2 2 3 3 2 2 2 1 2 2 2 3 1 0 2 2 1 3 3 0 5 2 3 5 5 4
3 5 7 8 9 10 11 12 13 14 14 13 3 3 4 3 2 3 4 1 2 0 0 3 5 7 8 5 6 5 6 4 2 1 4 2 3 2 6 4 3 5 6 5 4 4 2 3 4 5 5 6 4 3 4 3 4 6 4 1 1 1 1 2 4 3 4 4 4 4 3 1 2 1 3 1 2 2 5 3 5 3 5 5 6 6 10
2 5 6 7 8 9 10 11 12 13 13 9 3 3 3 2 4 0 3 3 3 3 3 3 5 7 9 4 7 8 6 6 5 1 2 3 1 4 1 6 6 4 5 4 4 2 4 2 3 4 4 4 4 4 2 7 8 8 4 1 2 3 3 3 1 3 5 3 3 2 2 2 4 2 2 2 3 3 3 4 4 6 4 5 7 5 8
2 4 5 6 7 9 10 11 12 13 12 7 2 2 2 3 1 2 4 3 2 5 4 6 6 2 7 2 6 8 9 8 4 4 2 4 3 4 4 6 5 6 7 6 3 5 4 3 3 4 3 5 7 6 7 5 7 7 3 2 4 3 0 3 2 3 1 1 0 1 3 4 4 6 4 4 6 3 4 4 8 3 4 7 10 10 11
2 4 5 6 6 8 9 11 12 12 12 5 2 4 2 3 2 2 2 3 2 2 4 2 6 8 7 3 6 8 9 9 4 2 5 5 5 5 2 8 8 7 5 6 4 6 4 4 3 5 5 5 5 5 6 4 7 7 4 2 1 4 2 3 2 2 3 3 3 4 5 4 5 6 7 6 4 6 5 7 9 6 7 10 11 12 13
1 3 5 6 6 7 9 11 12 13 13 4 3 2 4 0 3 1 3 4 1 1 2 4 6 8 3 3 7 8 10 9 6 2 5 4 5 3 6 6 6 7 7 7 5 6 4 1 3 6 5 5 6 4 3 3 6 6 4 3 3 5 2 1 3 6 6 5 4 5 4 4 6 4 3 3 1 0 2 1 4 6 5 10 11 10 10
1 2 4 5 6 7 9 11 12 14 14 2 2 1 1 3 3 3 4 6 3 2 3 6 7 6 6 7 6 6 10 9 9 5 1 4 5 7 8 3 5 3 7 7 6 1 4 3 1 4 8 4 6 5 3 4 3 6 4 5 3 5 1 3 4 4 4 6 4 3 4 6 3 1 2 1 4 3 4 2 4 4 4 1 4 7 7
1 1 2 4 4 6 8 10 12 15 13 3 2 2 2 2 2 4 3 4 3 4 3 2 4 6 8 7 8 7 11 7 9 3 3 1 2 1 3 4 4 5 6 8 4 3 2 2 1 1 2 1 2 2 1 3 3 4 5 2 5 3 3 3 2 3 0 5 2 5 8 6 5 5 4 8 8 4 2 5 5 6 4 3 4 4 7
1 1 1 3 3 6 8 9 11 14 9 4 2 2 2 3 2 2 3 4 4 6 5 7 9 1 3 4 6 3 5 9 9 7 3 4 4 1 3 6 6 3 5 3 6 5 7 5 4 2 2 2 3 2 2 3 3 2 4 5 2 2 4 2 0 3 0 2 4 6 6 3 2 5 3 2 4 5 4 3 7 9 9 5 6 7 8
3 2 1 2 3 4 6 8 9 11 9 3 1 2 2 3 5 4 4 4 2 3 6 7 8 3 6 6 5 8 8 10 10 4 1 5 3 2 5 4 4 2 5 6 8 9 8 5 4 3 2 2 2 2 4 5 4 4 4 4 4 5 4 2 0 2 2 2 5 4 3 1 4 1 1 1 2 3 7 8 8 5 9 11 10 7 7
3 2 1 2 1 3 5 7 7 8 8 5 3 2 3 2 2 4 4 6 4 6 8 6 2 1 3 6 6 5 2 3 4 4 2 5 4 4 4 3 4 5 9 10 9 7 5 4 3 2 3 3 3 4 6 6 5 3 4 4 5 3 3 1 2 2 2 3 2 1 1 7 3 3 3 2 1 2 4 9 8 7 6 7 8 6 6
4 3 3 1 1 2 4 6 6 6 5 6 3 2 1 1 2 3 3 2 5 2 3 1 4 5 6 7 7 6 5 5 4 2 5 1 5 8 5 1 5 7 8 8 6 5 3 3 2 4 5 5 5 5 5 3 2 2 5 7 7 6 4 3 2 2 3 2 3 5 7 6 5 4 5 6 1 4 3 4 5 2 4 5 5 5 4
5 4 3 1 0 1 3 4 5 5 3 4 4 2 0 1 2 3 4 4 3 0 2 5 5 9 7 7 7 7 7 7 7 5 2 2 2 4 4 5 4 7 6 6 4 4 3 2 2 3 4 5 3 4 7 6 4 1 1 3 6 7 7 3 5 2 3 4 4 3 2 2 3 3 7 3 2 1 1 4 8 5 4 5 4 5 4
6 5 4 2 1 1 1 3 4 5 5 7 3 1 0 1 2 3 4 4 3 5 4 3 5 2 7 5 6 7 6 6 7 6 6 6 5 7 4 4 5 6 5 3 1 2 2 3 3 4 3 5 3 4 4 6 4 4 1 2 6 6 7 6 4 2 3 4 4 2 2 1 3 5 7 5 3 2 1 6 5 7 5 6 4 4 3
6 5 4 4 3 2 1 2 3 4 4 6 4 2 1 2 1 2 3 4 5 4 4 2 1 2 3 3 1 4 6 5 8 6 5 8 9 9 7 6 4 5 7 4 4 3 3 4 5 5 1 2 5 1 4 4 5 5 5 5 6 7 6 4 6 5 5 4 4 4 2 2 3 6 6 6 4 3 4 4 1 8 3 4 4 4 4
7 7 6 6 3 1 0 1 2 2 4 3 4 2 1 1 2 2 3 4 4 6 3 2 3 5 5 2 4 2 1 1 3 1 3 7 9 9 9 8 8 2 3 5 4 3 3 3 4 4 3 4 1 1 3 4 6 4 6 8 6 5 3 5 6 5 4 5 5 4 3 6 5 6 8 7 6 4 4 3 3 4 1 3 4 5 4
8 8 7 6 3 2 2 1 2 3 4 5 5 3 2 0 2 3 3 4 4 2 5 3 2 3 4 2 3 1 3 3 3 4 3 5 6 9 12 4 2 5 7 4 5 3 4 4 2 3 3 4 4 2 2 3 4 3 5 7 5 5 4 3 3 5 5 4 6 5 5 3 7 6 9 10 6 3 2 5 2 1 2 4 4 5 5
9 8 7 6 5 3 2 2 3 2 4 4 6 3 0 2 0 3 3 4 2 5 2 3 2 2 2 2 2 3 4 5 4 6 6 5 8 11 7 4 7 3 6 4 5 3 4 4 4 2 4 4 4 1 3 4 1 5 5 6 4 6 4 4 6 4 3 3 5 4 5 3 8 13 7 5 4 1 5 2 1 1 3 3 5 5 5
9 8 7 6 5 4 3 3 3 2 3 2 5 3 3 4 2 2 3 4 4 3 4 4 2 4 3 3 2 3 4 3 1 6 4 1 9 8 7 6 9 8 5 5 6 5 3 4 5 3 1 3 4 3 3 2 6 4 3 4 5 5 4 3 4 6 4 4 4 3 1 7 13 12 3 10 12 5 3 4 4 5 4 4 4 5 5
9 8 7 7 7 5 3 4 4 4 4 2 6 3 4 3 0 2 3 4 5 3 3 3 4 6 6 7 6 5 6 5 3 4 4 1 5 4 2 1 8 8 5 6 3 2 4 2 2 2 4 4 2 4 2 4 4 6 2 1 4 9 7 3 2 6 5 3 3 2 5 7 12 11 6 4 11 8 4 4 7 5 5 4 6 6 4
9 8 8 8 7 6 5 4 4 4 4 2 5 3 3 2 2 2 4 5 5 6 5 6 4 7 7 8 8 7 7 6 5 5 5 4 4 4 2 2 5 2 1 4 5 3 3 6 4 4 4 5 4 5 5 7 3 6 4 10 4 2 1 3 4 6 6 10 10 5 4 4 9 11 9 7 4 4 5 7 8 7 8 5 6 4 4
9 8 8 8 8 8 6 6 6 4 3 1 4 3 2 2 3 4 5 5 4 3 4 5 3 4 6 6 5 3 4 6 7 6 2 4 3 3 2 2 3 2 2 1 3 3 1 1 2 1 4 3 5 5 4 5 6 5 5 4 6 5 5 5 6 1 1 4 5 11 13 10 9 10 11 11 9 8 6 7 8 9 8 6 6 5 5
9 9 8 8 8 8 7 7 7 5 4 4 3 3 3 3 0 3 5 3 2 3 3 2 5 1 4 3 1 4 4 1 1 5 6 6 6 5 1 5 3 2 2 3 1 2 1 3 4 4 5 3 4 5 5 4 4 6 5 6 5 6 7 7 10 8 8 9 6 3 4 5 5 7 8 10 12 13 11 9 9 8 8 8 7 4 6
8 9 8 8 8 8 8 8 6 5 5 6 5 4 3 2 2 2 4 5 4 3 2 3 3 3 1 2 4 1 3 3 3 5 8 8 7 5 1 2 2 1 1 1 1 3 3 3 3 4 5 3 4 5 4 2 3 3 6 4 3 5 7 3 5 8 10 13 15 14 11 10 10 9 9 9 8 9 10 9 8 8 10 10 10 8 8
8 8 8 8 8 7 7 6 5 5 5 5 5 3 3 3 2 3 3 4 4 2 3 4 1 3 1 4 2 2 3 4 5 5 6 7 7 4 4 4 3 3 4 3 1 1 1 2 2 7 7 3 3 5 3 3 6 5 4 6 6 4 8 4 3 7 7 9 8 4 5 4 4 7 11 11 11 11 9 7 7 8 9 9 9 9 8
7 7 8 8 8 7 6 5 5 4 5 6 6 5 4 3 3 3 3 3 5 3 2 0 1 2 6 9 2 3 4 4 5 6 6 7 8 6 6 6 5 4 4 4 2 3 3 5 9 1 2 2 3 5 5 2 2 6 9 9 9 11 11 7 7 7 8 9 8 4 7 9 10 6 3 3 4 7 9 11 11 10 9 9 9 9 8
7 8 9 8 8 7 5 5 5 5 4 6 5 5 5 5 3 3 4 4 4 5 3 4 6 6 3 3 0 4 3 3 5 6 7 7 8 8 7 7 6 5 3 3 3 2 4 5 1 3 3 3 3 5 4 6 7 10 11 10 11 12 10 12 13 13 14 15 14 9 7 10 8 6 6 6 5 6 8 9 10 10 10 10 9 9 10
9 9 10 9 8 7 6 6 5 6 7 5 4 4 3 3 2 2 3 4 3 3 2 2 2 0 3 2 3 4 4 4 3 4 7 7 8 8 8 7 7 5 4 3 3 5 4 4 2 2 1 2 5 4 5 6 9 10 10 13 12 10 12 12 12 13 12 11 8 5 6 7 7 7 5 6 6 6 8 8 9 10 10 11 11 9 9
9 8 8 8 7 7 7 6 6 7 8 4 3 2 2 2 2 1 4 4 3 3 2 2 4 4 5 2 2 4 4 3 4 3 5 5 6 7 6 5 3 5 4 3 3 5 0 4 3 4 4 7 4 5 8 9 10 10 12 11 8 9 11 12 12 13 15 14 8 3 5 7 7 7 10 10 9 8 8 8 8 9 7 8 9 10 9
8 7 8 8 8 7 7 8 7 8 6 5 4 2 3 3 2 3 2 3 3 4 2 2 3 3 2 2 3 2 3 1 2 3 3 3 5 4 4 7 6 7 5 4 3 1 4 4 6 6 6 6 6 7 9 11 10 13 11 6 5 7 9 11 11 11 11 10 9 10 12 11 9 10 9 8 10 10 10 10 9 8 4 6 7 6 6
8 9 8 8 8 8 8 8 8 7 4 5 7 7 6 4 3 3 2 0 4 2 2 2 2 0 1 1 1 3 3 4 5 5 5 4 4 4 5 4 3 3 2 2 3 3 1 2 5 7 6 7 4 4 10 12 14 14 13 12 10 10 11 10 10 9 9 7 8 10 10 9 9 11 13 11 8 7 8 10 10 7 6 7 9 8 7
10 9 8 8 8 8 9 8 7 6 3 4 4 4 3 9 7 6 1 2 1 1 1 2 1 2 1 2 4 5 3 4 5 7 5 4 2 4 3 5 5 4 5 7 4 4 2 3 4 7 3 5 8 6 9 12 14 15 14 14 14 15 13 11 10 12 12 10 9 11 13 12 9 4 6 8 9 8 8 8 8 9 9 10 10 10 8
9 8 8 8 8 7 8 8 5 4 4 3 3 3 1 5 6 6 5 2 3 1 1 2 2 2 2 2 4 4 1 4 4 6 4 4 3 5 4 3 4 4 3 5 4 4 4 5 5 5 9 5 5 7 9 11 13 13 13 15 15 14 13 13 13 13 14 13 11 11 12 13 13 12 12 11 11 11 10 10 10 10 10 9 9 9 8
10 9 8 8 8 8 5 5 3 4 3 3 1 3 3 4 3 2 2 1 2 1 2 3 2 4 3 3 4 2 1 4 1 2 1 4 5 2 4 4 4 5 2 5 6 6 6 5 4 8 5 7 9 8 9 8 12 14 14 15 13 12 13 14 14 13 12 11 12 12 13 13 14 15 14 13 12 12 11 10 9 9 11 10 10 8 8
11 10 10 8 4 3 3 4 3 4 2 1 4 3 4 6 4 2 1 2 2 1 2 3 5 6 5 4 2 1 3 2 3 3 4 3 3 2 4 3 6 2 1 4 6 5 6 5 5 8 8 10 7 7 10 11 13 14 14 14 13 12 12 13 13 13 13 14 13 11 11 12 12 11 11 12 13 12 11 12 11 11 12 12 10 9 8
12 12 7 5 3 2 1 3 3 3 8 5 3 4 2 2 1 1 1 1 2 3 3 3 4 5 2 2 2 3 2 1 1 3 2 2 2 2 2 3 3 3 6 4 7 8 4 4 6 9 9 10 10 10 10 12 13 13 15 15 14 13 13 13 13 12 13 14 14 14 12 10 11 11 12 13 14 14 12 11 11 10 10 10 9 8 7
11 8 5 5 4 4 2 2 6 9 6 2 0 0 1 0 1 2 2 2 1 4 5 6 8 8 7 7 5 3 1 1 2 4 3 6 3 2 3 4 3 1 5 4 4 9 6 6 6 7 10 8 9 12 14 16 16 14 14 13 12 13 13 14 13 14 14 14 14 13 11 10 10 12 12 12 11 11 11 11 11 10 10 9 8 8 8
7 6 5 5 6 3 3 4 8 7 3 2 1 2 2 2 3 3 3 3 2 3 4 7 8 9 10 10 7 4 3 3 2 3 3 3 2 2 3 3 2 2 6 6 3 8 5 7 4 6 8 7 9 11 13 14 14 12 9 10 13 14 15 14 14 12 14 15 15 15 15 15 14 12 11 11 11 11 11 11 10 9 9 8 8 8 9
5 4 4 5 6 3 4 5 3 1 2 2 1 1 2 3 4 2 2 5 4 2 5 6 6 9 9 10 8 5 1 2 2 3 2 2 3 2 1 3 1 3 4 5 2 3 4 6 6 8 5 3 6 7 10 12 9 6 9 11 11 11 12 13 13 12 12 12 12 13 14 15 15 14 13 14 12 11 10 10 10 10 9 9 9 10 8
8 6 4 5 5 4 4 3 2 2 1 1 1 4 3 2 2 2 2 4 5 3 5 7 8 9 8 10 7 5 0 0 1 0 0 2 2 3 3 3 2 4 5 1 4 3 3 7 6 6 6 6 6 9 11 9 3 5 10 11 10 10 10 11 11 11 10 11 11 12 12 12 13 13 13 13 13 12 11 10 9 8 8 8 8 8 9
11 8 7 5 3 3 2 3 3 1 3 3 3 3 4 5 5 4 3 2 1 3 4 5 2 4 4 2 2 1 1 1 1 2 2 2 1 1 3 4 3 6 5 2 2 4 7 7 6 5 2 4 8 8 7 6 5 7 9 10 10 9 9 10 10 10 9 10 11 11 11 11 12 12 12 12 13 13 11 10 9 8 8 8 9 9 9
7 5 3 2 2 1 2 4 3 2 3 4 5 6 7 6 6 5 3 3 5 6 7 8 6 5 3 4 4 3 3 3 1 2 3 2 2 3 3 4 7 4 3 2 4 9 8 5 6 6 5 5 5 4 4 5 8 9 11 12 11 10 9 8 8 9 9 9 9 10 10 10 11 10 10 10 11 12 11 10 9 9 9 9 9 10 9
5 3 2 3 2 3 3 2 2 3 7 8 5 7 6 6 6 8 7 5 6 5 8 8 7 7 6 6 4 3 3 3 3 4 3 4 4 4 4 5 3 3 5 8 7 7 5 7 4 5 9 10 5 3 7 9 10 11 11 12 13 13 12 10 9 8 8 8 9 9 9 9 9 9 9 9 9 9 10 10 9 9 10 10 10 10 9
3 5 4 5 4 3 3 4 5 5 5 5 6 7 6 5 4 5 4 2 6 6 6 9 9 8 7 7 3 4 4 3 6 4 3 3 4 6 4 2 1 5 7 8 8 10 7 6 5 7 6 6 6 7 8 10 11 11 10 11 11 13 13 11 9 8 9 8 7 7 8 7 7 8 8 8 8 8 9 9 8 10 10 10 10 9 8
2 0 1 2 4 5 3 6 7 5 4 6 8 7 7 6 3 3 1 4 7 4 3 5 7 8 7 8 4 2 3 3 4 4 5 5 4 2 2 5 8 7 7 9 9 7 6 6 6 5 3 5 7 8 9 10 11 11 11 11 11 13 14 13 10 9 9 9 8 7 7 7 7 7 7 7 8 8 8 9 10 11 10 10 9 9 8
4 1 1 3 5 6 11 8 5 5 5 3 4 5 6 5 6 6 5 6 5 4 4 6 7 7 5 4 5 5 5 4 5 5 4 3 2 3 4 5 7 7 6 8 9 6 7 7 5 3 4 7 9 11 11 10 10 11 12 11 11 12 12 12 11 10 9 9 8 8 7 7 7 7 8 9 8 8 9 10 10 10 9 9 8 8 7
1 2 4 4 3 4 7 8 8 8 8 6 4 4 4 6 6 7 4 4 6 7 5 5 3 5 4 3 5 5 6 4 5 4 4 4 5 5 6 7 8 10 7 7 8 7 6 5 5 7 8 8 8 9 9 10 10 10 10 11 11 12 12 12 11 11 10 9 9 9 8 7 6 6 7 8 9 9 10 10 9 9 9 9 8 8 8
2 2 2 4 5 7 5 5 9 10 8 7 6 6 6 5 5 4 3 5 5 5 5 3 1 3 3 3 3 5 6 6 4 3 7 10 8 6 7 12 10 7 5 4 5 5 5 4 3 4 6 7 8 8 9 9 10 10 11 12 12 12 12 13 12 11 10 9 9 9 8 6 7 7 9 10 10 9 10 10 10 10 9 9 8 8 8
1 2 4 8 9 6 7 8 8 9 9 9 8 7 6 6 5 2 1 4 5 6 4 6 5 5 4 3 3 5 4 4 7 9 9 9 7 8 10 12 9 8 7 5 6 6 7 8 8 6 7 8 9 10 11 12 13 13 14 15 15 14 14 13 12 10 10 9 9 8 8 9 8 8 8 9 9 9 10 10 10 9 8 8 7 8 8
3 4 5 6 7 7 5 6 5 5 5 4 5 5 5 7 5 1 1 3 4 6 7 5 4 4 4 7 7 4 1 2 6 7 12 8 6 10 10 11 10 8 8 9 9 8 8 7 7 7 7 8 8 8 9 11 12 12 13 14 14 13 13 11 10 9 9 8 8 8 8 8 8 8 8 9 10 10 10 9 9 8 7 6 7 8 8
Wind_Direction
0 5 4 2 358 356 359 360 358 3 356 5 5 310 245 214 280 78 0 338 300 263 201 100 188 205 69 111 106 131 192 203 143 191 169 183 175 162 199 129 189 96 342 174 158 231 132 259 345 116 155 113 52 76 286 280 230 258 109 187 128 245 262 168 117 120 113 113 103 130 194 258 217 121 28 306 353 5 325 331 342 305 302 271 286 241 336
0 1 7 4 359 356 358 0 1 5 18 359 318 282 339 325 301 148 122 264 281 252 205 188 191 130 132 195 122 54 64 204 171 207 155 277 182 197 144 149 346 99 184 173 178 179 201 169 197 159 178 121 60 105 173 241 252 322 58 323 98 242 116 291 147 174 158 165 175 191 203 241 307 353 53 4 324 320 313 303 283 282 3 337 305 300 9
354 6 7 1 358 356 358 359 360 5 8 360 321 332 343 296 247 262 339 3 250 242 282 218 174 161 165 168 164 164 152 46 5 320 130 120 101 187 150 61 140 129 136 109 129 128 316 147 118 26 179 100 144 96 206 232 100 69 64 11 228 267 58 274 267 222 212 203 180 66 136 49 41 102 175 188 286 223 283 261 328 284 91 232 270 293 349
0 16 2 359 355 357 358 359 360 3 8 352 278 291 269 212 236 158 196 157 182 304 9 308 202 165 163 180 164 188 152 136 110 292 100 7 111 9 115 125 151 136 165 157 175 175 170 291 155 195 164 145 137 90 131 193 131 97 88 303 291 76 92 340 358 356 26 43 41 78 325 358 322 36 291 216 235 238 269 282 266 300 20 292 269 277 306
13 14 1 351 356 357 358 0 359 4 6 11 319 268 284 354 264 158 198 152 251 208 191 206 212 191 175 188 167 187 180 144 143 344 195 155 185 130 175 166 170 163 198 177 174 174 176 197 222 195 178 126 101 135 164 126 117 140 145 228 244 201 174 87 328 41 42 40 36 48 290 310 271 289 291 278 239 242 245 270 319 20 303 274 58 356 311
29 8 357 348 353 358 358 1 359 359 4 341 274 282 191 242 106 319 18 306 169 189 198 204 191 98 195 160 174 187 172 177 180 151 31 136 202 205 164 202 220 184 194 185 196 178 193 186 201 165 204 160 159 168 177 186 152 208 172 171 271 288 132 118 260 137 96 24 268 227 247 265 282 274 243 221 241 228 209 240 270 278 271 294 329 325 309
359 16 350 344 351 357 360 1 359 355 352 320 311 279 121 305 1 324 34 241 359 332 30 200 198 174 202 146 198 187 189 190 167 197 152 192 179 233 206 208 204 202 184 206 197 184 189 204 193 216 188 217 183 182 155 172 166 196 163 154 27 272 128 129 249 246 185 159 200 200 239 248 265 268 269 253 210 199 214 252 274 254 250 273 293 305 301
19 3 343 348 347 359 4 1 0 353 337 279 255 269 305 130 276 150 187 296 349 54 184 180 186 188 176 191 197 202 194 191 149 184 195 186 194 180 234 223 191 196 200 212 230 200 252 27 201 199 222 184 230 231 281 105 177 211 189 174 140 273 106 168 223 244 175 163 176 202 222 277 299 332 312 241 299 48 254 280 281 304 298 277 277 281 286
93 349 347 344 350 5 5 5 4 352 335 205 269 302 339 342 343 331 295 224 170 180 200 189 202 193 175 223 164 214 200 200 179 167 239 233 199 185 221 197 142 172 209 213 230 160 225 211 306 178 199 239 191 245 162 236 182 185 176 209 158 249 107 202 230 265 170 161 201 226 253 259 280 303 295 116 111 230 195 207 200 197 230 262 288 278 267
219 337 344 338 352 8 7 13 9 358 321 271 305 263 77 272 215 256 291 261 114 232 152 221 202 216 193 213 175 195 199 189 170 164 193 221 338 307 245 176 211 160 199 214 210 102 145 118 354 202 168 311 112 201 338 213 234 189 192 154 224 219 195 204 218 258 163 123 241 290 298 273 220 207 214 191 203 250 179 245 187 202 181 215 255 300 356
243 292 339 327 1 5 14 18 22 6 356 49 339 340 359 313 294 221 227 268 191 232 209 204 216 154 118 164 163 179 186 174 185 211 159 194 175 175 247 184 219 205 193 94 74 91 96 98 109 124 164 166 167 182 200 195 234 240 199 187 202 224 249 248 205 271 311 142 291 294 277 249 75 66 356 284 267 217 197 248 230 218 206 259 316 314 319
248 262 295 338 358 12 12 24 23 28 1 37 338 304 347 318 273 267 241 236 227 177 231 218 220 156 211 167 199 186 188 185 194 217 181 154 109 162 199 194 215 213 91 125 117 108 111 118 124 139 151 179 218 214 224 225 203 210 235 236 192 206 221 247 165 265 280 342 287 265 252 63 60 99 64 236 252 269 264 278 273 245 217 244 267 278 296
233 244 261 322 342 5 19 17 23 37 14 347 302 297 42 11 303 292 274 253 245 199 215 217 101 115 181 168 188 175 129 130 122 114 59 153 149 170 189 199 207 93 144 137 141 154 169 153 150 211 178 195 206 211 220 216 216 202 251 249 227 201 215 196 230 261 269 259 226 287 35 354 359 78 90 101 214 249 262 265 242 231 236 234 250 279 305
220 223 251 262 358 39 16 9 19 23 30 346 322 348 17 311 279 258 257 247 242 225 277 292 175 192 185 189 187 144 149 147 124 165 177 150 182 174 152 87 71 128 151 145 158 174 173 192 193 182 180 184 171 204 171 150 143 219 216 218 230 240 238 220 239 146 274 289 295 284 308 280 140 165 171 191 191 178 266 314 320 179 221 220 253 285 303
217 231 230 221 109 41 15 7 11 10 61 338 322 310 290 228 252 289 311 282 271 224 191 230 219 199 189 182 178 170 186 161 171 172 101 108 158 103 108 103 137 152 157 193 173 206 238 169 196 195 174 192 203 185 162 197 141 100 309 254 225 222 235 185 245 200 247 287 301 293 274 294 160 107 125 146 79 3 338 280 275 191 183 197 247 287 312
225 230 226 224 213 146 31 12 3 359 14 320 286 307 288 276 265 267 272 284 277 245 220 218 19 262 199 186 201 219 190 177 193 160 169 174 139 133 101 117 141 159 172 219 238 204 193 212 212 212 209 195 147 128 203 155 169 128 129 184 206 217 235 256 244 226 208 242 268 279 295 301 30 153 153 143 140 151 198 265 269 123 170 172 242 274 279
216 225 219 221 195 158 26 2 347 7 1 347 319 304 230 130 263 298 279 242 234 256 61 18 76 306 224 144 161 236 215 202 184 193 189 181 169 150 118 137 142 194 192 188 191 196 190 217 230 236 174 116 181 182 125 200 180 153 139 161 170 192 201 212 228 244 236 260 258 268 226 273 136 137 146 149 148 163 236 276 103 127 163 174 217 254 287
215 218 221 226 194 188 84 309 326 340 344 342 305 296 238 144 265 267 234 260 248 247 97 101 230 216 219 326 228 107 97 138 196 204 229 149 151 163 146 151 165 173 271 233 195 220 226 218 219 221 213 92 16 88 234 159 196 189 182 178 170 179 189 207 231 240 217 207 267 276 264 240 194 161 138 136 154 203 253 276 80 124 154 197 213 265 265
205 210 216 216 208 201 211 258 281 316 342 342 307 240 215 30 184 227 281 274 243 248 94 70 7 332 8 261 354 3 342 333 248 195 158 170 193 166 158 140 219 176 190 219 206 224 219 214 276 272 239 151 204 226 117 197 197 127 149 170 172 186 182 207 239 247 249 240 254 264 284 38 128 128 147 144 165 220 266 64 34 11 217 193 222 251 255
202 206 212 211 199 187 218 250 295 303 315 338 315 297 336 181 163 302 282 272 290 274 144 158 200 214 67 307 245 202 188 208 239 244 189 196 126 146 144 178 208 214 179 205 216 215 236 223 201 181 243 202 182 70 238 212 172 198 196 202 229 176 190 208 202 215 242 250 259 277 273 123 149 126 130 186 225 317 40 9 90 200 242 224 221 245 259
200 203 213 215 210 203 207 272 277 283 312 323 297 300 232 169 231 271 278 289 295 264 198 88 293 269 269 262 308 335 328 328 323 238 249 173 161 173 186 205 180 181 186 184 209 200 210 222 187 205 287 286 131 203 242 181 192 190 251 204 237 137 229 226 200 181 247 208 209 230 54 118 159 161 215 188 220 298 337 298 271 179 228 229 250 243 244
193 200 211 208 211 216 224 240 249 267 285 301 293 277 260 137 111 284 291 259 255 260 342 354 324 303 292 287 290 281 283 284 308 344 316 154 196 239 355 67 172 189 182 191 186 129 208 220 166 205 201 185 142 228 198 216 230 132 173 171 229 174 231 336 290 161 221 261 252 65 83 151 181 206 262 262 215 231 249 257 279 281 234 214 264 275 261
191 202 210 208 206 225 198 214 248 251 264 326 290 287 292 298 242 330 264 247 233 261 269 266 251 256 246 253 251 266 265 264 275 264 256 286 199 223 239 219 171 40 92 230 243 245 178 190 205 221 219 206 198 200 205 241 277 145 191 197 271 79 266 53 277 247 236 274 275 286 243 191 202 219 241 256 221 218 227 241 258 245 268 250 265 285 273
188 197 210 212 210 210 208 217 239 246 222 237 312 309 276 326 328 300 229 250 272 283 241 222 248 246 240 217 153 187 212 229 234 237 277 280 246 198 219 259 30 179 227 74 2 301 120 243 5 238 238 199 193 227 220 213 229 232 248 190 215 202 170 202 235 141 30 267 196 228 244 240 228 235 237 239 240 241 227 239 241 259 262 257 245 259 265
188 194 202 213 217 218 208 205 223 245 210 183 242 236 251 237 217 311 260 216 214 214 243 167 209 90 67 22 286 238 228 299 186 204 205 216 256 287 334 53 3 336 48 81 217 228 180 206 185 202 230 177 203 245 220 258 221 187 233 239 208 194 174 230 237 239 233 251 264 247 239 250 249 243 244 239 238 241 241 241 251 257 260 258 257 243 252
193 192 200 214 217 222 208 200 213 230 220 217 275 301 285 273 329 288 278 287 283 275 247 251 153 116 205 228 203 115 99 219 214 204 210 216 230 263 35 158 140 109 85 126 222 236 215 234 239 241 237 197 200 252 241 172 349 111 243 271 25 88 137 234 210 233 246 256 261 261 255 242 228 221 228 243 247 249 245 235 236 244 252 249 243 233 244
199 199 200 208 223 225 212 199 206 222 241 228 237 263 279 281 285 288 256 279 246 217 232 243 211 124 132 268 292 277 196 208 216 215 212 212 212 195 217 232 225 163 191 144 78 273 217 248 228 242 228 271 157 250 273 212 232 222 232 213 144 192 236 217 210 242 251 259 271 254 255 268 244 212 229 230 234 243 243 231 236 240 247 244 242 226 220
201 204 203 208 221 228 209 188 188 215 240 245 250 262 275 270 259 273 269 264 272 296 341 306 180 6 321 270 247 191 186 214 214 218 219 206 206 205 205 207 211 204 194 182 184 200 217 213 229 225 17 106 217 228 199 293 29 257 245 233 178 220 233 226 227 239 260 273 287 272 271 284 283 291 253 231 240 234 237 242 244 245 241 243 240 238 225
198 204 213 215 219 224 214 190 192 216 225 244 259 267 253 246 256 235 239 253 274 267 278 282 289 276 257 86 171 224 182 222 216 222 220 209 204 204 209 210 209 218 206 220 260 246 217 237 195 218 230 122 203 248 161 226 221 236 234 229 198 221 232 242 250 266 274 278 282 275 262 274 288 291 271 244 217 229 240 246 251 253 249 239 236 240 252
197 204 210 216 217 220 216 202 194 199 211 241 261 259 237 178 197 265 212 212 228 271 275 277 253 184 26 266 220 205 195 204 229 224 220 213 205 207 214 207 218 214 221 224 225 231 231 241 198 234 123 199 238 269 242 248 253 248 238 237 207 207 221 237 247 253 264 273 295 287 272 274 275 277 259 240 219 227 243 249 251 255 250 248 245 242 243
197 201 206 209 214 212 214 206 203 201 213 239 260 246 232 206 109 111 175 193 202 246 256 273 261 343 297 157 254 240 240 221 230 225 220 224 217 213 214 207 202 194 217 212 217 244 192 230 219 216 151 195 226 250 246 252 258 258 247 241 188 197 221 234 235 243 253 261 265 269 273 270 267 262 250 237 228 218 232 245 253 258 279 284 259 254 253
187 195 197 203 210 208 212 209 202 188 216 234 238 285 4 13 47 113 156 226 211 231 232 247 247 227 255 212 166 159 268 229 191 191 191 194 206 186 187 212 224 203 232 234 229 205 225 241 242 236 232 169 174 256 252 252 253 252 254 248 170 219 235 242 241 243 249 255 259 269 264 257 239 241 256 240 231 229 233 245 252 255 173 239 259 255 250
198 204 199 199 203 207 206 206 194 199 237 267 304 285 268 248 247 224 345 264 218 251 269 258 259 1 261 112 122 163 188 189 199 208 196 185 209 173 202 181 193 174 114 232 193 232 187 186 228 242 236 133 205 240 244 241 245 254 262 268 267 256 255 252 249 253 256 241 223 238 248 255 253 237 241 252 240 230 238 247 252 249 249 245 243 238 224
201 199 197 194 200 203 202 190 184 201 269 264 250 235 202 202 215 215 255 313 255 300 278 251 226 223 237 89 248 123 227 218 193 184 197 150 194 194 194 175 199 217 180 208 223 213 168 211 211 234 191 203 225 248 246 244 248 257 261 261 260 265 266 254 243 249 246 237 223 233 248 261 276 276 240 236 241 238 239 242 241 242 246 248 248 241 227
194 191 186 182 192 191 180 170 170 199 237 240 263 272 92 179 213 173 189 238 169 155 222 233 256 254 233 217 240 130 149 249 201 179 211 132 176 206 165 202 145 221 194 201 240 224 223 214 209 226 230 196 201 225 238 248 250 252 251 252 255 261 261 255 252 253 255 251 237 234 239 249 252 244 244 241 242 245 239 233 234 240 247 245 241 228 204
194 182 174 177 180 177 174 175 209 204 227 244 255 54 88 137 135 143 211 285 298 284 197 216 202 230 234 224 207 124 190 236 258 151 184 125 168 197 201 207 216 211 141 179 232 205 229 192 187 236 206 215 219 213 242 243 251 250 251 255 257 255 254 252 258 265 266 262 252 246 248 249 250 252 252 251 250 253 252 246 239 234 242 244 236 219 203
178 171 162 156 152 191 208 207 164 209 252 45 105 84 112 122 80 99 135 261 194 228 263 264 220 223 207 239 355 126 226 199 162 202 163 197 186 144 195 187 225 149 177 219 221 219 222 179 228 248 233 231 239 232 245 251 253 257 260 262 264 263 262 259 258 265 268 268 258 247 245 247 247 247 248 247 247 250 245 238 238 232 229 230 228 218 211
166 161 153 157 161 167 195 221 205 149 113 90 150 148 175 242 123 185 173 207 245 210 227 232 235 237 274 297 223 100 228 172 121 206 184 203 189 176 196 225 217 190 239 223 219 199 216 194 230 243 250 244 254 256 254 250 250 252 258 264 267 268 269 267 266 263 262 261 256 249 241 233 240 243 242 243 244 242 237 239 240 233 231 230 230 223 216
157 166 181 185 181 196 202 182 119 125 134 87 13 285 183 179 200 210 197 194 192 202 217 226 224 218 223 223 231 103 324 334 194 199 221 161 216 177 174 213 174 215 255 250 205 151 225 220 230 237 251 235 233 238 244 253 257 257 259 264 269 269 267 266 263 260 256 255 260 262 255 242 233 235 234 241 244 242 238 235 235 230 227 229 226 217 219
165 159 188 186 196 179 89 101 132 134 152 159 217 230 212 181 208 212 155 181 216 220 196 220 221 219 217 224 225 213 134 218 227 198 220 165 180 258 167 227 205 194 242 237 204 151 234 252 229 227 251 224 221 230 246 251 255 260 268 266 265 264 264 265 266 260 257 257 259 262 260 257 253 250 248 246 240 239 235 232 231 227 223 226 225 223 217
177 172 172 191 175 124 149 149 148 170 172 197 191 164 256 201 208 248 173 203 207 199 191 227 178 209 211 225 224 231 74 22 4 359 330 254 146 234 223 211 170 242 245 240 140 164 226 248 252 248 257 212 189 229 250 253 256 273 274 272 272 271 273 274 272 266 259 258 257 258 256 253 250 247 246 249 245 240 243 241 229 222 218 220 205 214 220
176 184 163 127 110 112 133 135 174 162 180 253 209 204 203 241 187 193 237 220 199 191 191 200 202 205 205 201 211 209 224 34 32 1 217 251 199 215 225 231 208 238 248 235 156 212 228 245 242 245 235 213 215 243 253 265 267 257 269 276 276 270 272 275 273 266 255 253 253 252 250 247 245 242 241 239 237 238 241 242 236 216 215 220 219 215 212
91 93 116 121 151 150 184 175 183 196 188 189 192 220 191 215 211 202 194 220 228 207 179 188 283 106 23 126 107 47 194 227 187 198 199 227 119 220 240 230 229 237 240 143 200 240 230 234 241 241 237 196 216 228 244 267 271 263 270 277 279 276 273 275 275 276 266 253 250 253 256 253 247 244 242 241 240 242 240 237 231 227 219 217 213 211 208
122 121 142 179 163 190 199 189 179 174 226 213 189 205 181 196 193 183 211 189 182 213 189 174 192 168 178 172 169 151 162 188 229 226 216 227 249 214 203 231 226 248 46 254 237 238 244 246 248 254 248 233 223 220 254 269 271 281 287 290 293 289 274 269 267 268 266 257 249 247 249 248 247 244 238 234 231 232 233 231 222 219 221 216 210 206 205
146 159 161 161 171 187 129 212 169 173 218 207 211 225 201 199 200 192 216 178 176 213 177 192 180 188 189 157 180 184 201 174 163 200 203 205 221 224 220 238 243 241 239 248 242 249 246 251 240 236 243 250 248 251 263 269 278 283 289 294 294 294 290 278 275 274 273 268 257 247 244 243 242 239 234 227 224 225 226 225 210 202 205 206 204 204 199
161 167 161 151 176 209 185 215 160 200 229 226 209 214 228 234 243 211 197 177 194 197 191 196 192 190 186 168 187 172 169 191 179 205 218 208 216 228 219 260 326 260 250 249 248 246 245 252 256 261 252 245 251 264 274 281 284 286 285 285 292 295 297 295 286 281 280 278 270 251 246 242 237 234 230 224 218 215 217 220 210 201 195 198 199 202 195
137 265 182 191 207 195 203 232 206 203 200 207 230 224 228 237 237 265 154 201 218 210 191 199 200 196 188 174 186 190 191 187 201 201 203 217 214 244 215 230 234 230 236 242 243 251 257 260 272 285 284 277 277 275 275 278 279 282 284 286 286 288 293 295 290 284 284 279 268 256 252 247 242 235 229 222 214 211 208 208 202 193 191 195 195 202 199
172 152 186 192 202 197 204 217 245 214 205 207 177 211 223 229 224 219 211 220 225 203 193 183 183 188 204 188 219 216 194 195 208 220 204 225 216 239 226 226 238 244 237 245 249 255 265 271 274 293 295 289 281 279 280 283 287 290 292 293 292 293 297 297 295 290 289 282 270 262 256 247 237 232 228 224 215 202 193 191 184 183 188 194 197 200 204
84 162 178 210 220 202 215 214 213 224 212 213 212 208 197 208 220 232 200 198 208 209 196 195 192 189 200 186 197 208 213 189 197 210 180 208 221 215 208 232 233 242 237 240 258 262 274 292 291 289 290 293 296 298 298 298 299 301 303 304 305 306 306 302 296 290 284 275 267 261 257 248 237 234 228 218 207 190 183 177 176 179 189 197 203 206 209
136 201 248 232 208 218 217 213 216 225 219 208 212 222 219 228 229 225 182 205 213 212 194 193 232 236 212 182 202 210 222 207 207 217 213 215 220 230 231 241 238 244 256 232 235 254 251 246 282 312 317 316 316 318 316 315 314 309 309 311 310 308 305 301 292 282 275 269 260 253 252 242 232 228 217 209 198 178 173 178 184 189 195 203 209 211 218
267 266 236 219 219 208 189 206 209 221 221 215 215 218 217 229 231 210 177 234 213 210 213 214 199 209 208 196 212 209 219 200 220 222 227 227 219 225 232 240 245 244 248 263 276 279 284 285 286 305 330 329 334 332 327 323 321 319 316 312 308 304 301 294 284 277 271 263 256 249 243 237 231 226 214 202 191 180 181 183 191 198 199 199 207 217 219
173 206 222 218 231 246 246 247 253 249 251 234 230 234 227 240 232 213 64 249 227 226 220 214 208 208 213 218 211 222 227 194 231 227 233 233 231 236 234 239 251 258 266 266 264 268 275 287 289 312 327 331 328 319 319 319 316 311 308 304 302 299 295 288 284 279 273 264 250 242 237 233 224 209 193 191 190 193 193 189 189 196 198 205 206 213 223